Content
SEND FEEDBACK

Daily
Averages
Monthly
Summary
Canada

DELTA, BRITISH COLUMBIA


Home > North America > Canada > British Columbia
Elevation: 30 feet     Latitude: 49 10N     Longitude: 123 10W

WEATHER
 
SELECT A DAY
Number of Records: 254,921;   Date Range: 5/15/97 - 12/19/14
 
SHARE

PRINT THIS DATA

[ ← Previous Day ]
WEATHER ALMANAC - APRIL 10, 2013
[ Next Day → ]
[ °C ]   °F
Weather ElementAverageHighLow
Temperature50.3 °F53.6 °F (1:15 pm)46.4 °F (10:35 pm)
Dewpoint43.9 °F48.2 °F (8:35 am)39.2 °F (9:55 pm)
Humidity79.3 %100 % (8:35 am)67 % (12:35 am)
Barometer30.02 in30.19 in (11:35 pm)29.84 in (9:55 am)
Wind Speed9.9 mph18.4 mph (6:55 am)
Wind Gust29.9 mph (6:55 am)
Weather ElementAverage
Visibility8.8 mi
Wind DirectionSSW (198.1 °)

Weather ElementTotal
Precipitation0.58 in
Heating Degree Days15 (Base 65)
Averaged from 67 records on April 10, 2013
WEATHER CONDITIONS BREAKOUT
WIND DIRECTION BREAKOUT
WEATHER BY HOUR - APRIL 10, 2013
[ °C ]   °F
Local TimeTemperatureDewpointHumidityBarometerVisibilityWind DirectionWind SpeedGust SpeedPrecipitationEventsConditions
12:35 AM51.8 °F41.0 °F67 %30.09 in10.0 miSouth (180°)11.5 mph20.7 mphOvercast
12:55 AM51.8 °F41.0 °F67 %30.08 in10.0 miSouth (180°)8.1 mph17.3 mphOvercast
1:15 AM51.8 °F41.0 °F67 %30.07 in10.0 miSouth (180°)11.5 mph21.9 mphOvercast
1:35 AM51.8 °F41.0 °F67 %30.05 in10.0 miSouth (180°)12.7 mph18.4 mphOvercast
1:55 AM51.8 °F41.0 °F67 %30.05 in10.0 miSouth (180°)11.5 mph18.4 mphMostly Cloudy
2:15 AM51.8 °F41.0 °F67 %30.04 in10.0 miSouth (180°)10.4 mph24.2 mphMostly Cloudy
2:35 AM51.8 °F41.0 °F67 %30.01 in10.0 miSouth (170°)10.4 mph18.4 mphMostly Cloudy
2:55 AM51.8 °F42.8 °F71 %30.01 in10.0 miSouth (180°)11.5 mph20.7 mphMostly Cloudy
3:15 AM51.8 °F42.8 °F71 %30.00 in10.0 miSouth (170°)12.7 mph23.0 mphMostly Cloudy
3:55 AM51.8 °F42.8 °F71 %29.98 in10.0 miSouth (180°)12.7 mph25.3 mphClear
4:15 AM51.8 °F42.8 °F71 %29.96 in10.0 miSouth (180°)16.1 mph24.2 mphScattered Clouds
4:35 AM51.8 °F44.6 °F76 %29.96 in10.0 miSouth (180°)10.4 mph21.9 mphMostly Cloudy
4:55 AM50.0 °F44.6 °F82 %29.95 in10.0 miSouth (180°)10.4 mph20.7 mphMostly Cloudy
5:15 AM50.0 °F44.6 °F82 %29.94 in8.0 miSouth (180°)10.4 mph16.1 mphMostly Cloudy
5:35 AM50.0 °F44.6 °F82 %29.91 in7.0 miSouth (180°)10.4 mph24.2 mphRainLight Rain
5:55 AM50.0 °F46.4 °F87 %29.89 in5.0 miSouth (180°)11.5 mph21.9 mphRainLight Rain
6:15 AM48.2 °F46.4 °F93 %29.87 in4.0 miSouth (180°)15.0 mph28.8 mphRainRain
6:35 AM48.2 °F46.4 °F93 %29.85 in5.0 miSouth (180°)12.7 mph23.0 mph0.01 inRainLight Rain
6:55 AM48.2 °F46.4 °F93 %29.85 in4.0 miSouth (190°)18.4 mph29.9 mph0.02 inRainLight Rain
7:15 AM48.2 °F46.4 °F93 %29.85 in5.0 miSouth (180°)15.0 mph20.7 mph0.02 inRainRain
7:55 AM48.2 °F46.4 °F93 %29.87 in2.0 miSouth (190°)10.4 mph24.2 mph0.15 inRainHeavy Rain
8:15 AM48.2 °F46.4 °F93 %29.86 in3.0 miSouth (180°)9.2 mph21.9 mph0.06 inRainRain
8:35 AM48.2 °F48.2 °F100 %29.87 in3.0 miSSW (200°)11.5 mph20.7 mph0.10 inRainRain
8:55 AM48.2 °F48.2 °F100 %29.86 in3.0 miSouth (190°)10.4 mph18.4 mph0.14 inRainRain
9:15 AM48.2 °F48.2 °F100 %29.86 in4.0 miSSW (200°)10.4 mph0.02 inRainRain
9:35 AM50.0 °F48.2 °F94 %29.85 in4.0 miSouth (190°)12.7 mph19.6 mph0.03 inRainLight Rain
9:55 AM50.0 °F48.2 °F94 %29.84 in5.0 miSSW (200°)12.7 mph17.3 mph0.03 inRainLight Rain
10:15 AM50.0 °F48.2 °F94 %29.85 in10.0 miSSW (200°)16.1 mph23.0 mphRainLight Rain
10:35 AM50.0 °F48.2 °F94 %29.85 in10.0 miSouth (190°)16.1 mph23.0 mphPartly Cloudy
10:55 AM50.0 °F46.4 °F87 %29.88 in10.0 miSSW (210°)10.4 mphScattered Clouds
11:15 AM50.0 °F46.4 °F87 %29.90 in10.0 miSSW (200°)9.2 mphMostly Cloudy
11:35 AM50.0 °F46.4 °F87 %29.92 in10.0 miSouth (190°)6.9 mphMostly Cloudy
12:15 PM50.0 °F46.4 °F87 %29.96 in9.0 miWSW (240°)5.8 mphRainLight Rain
12:35 PM50.0 °F46.4 °F87 %29.98 in10.0 miNorth (350°)5.8 mphOvercast
12:55 PM51.8 °F46.4 °F82 %29.99 in10.0 miWNW (290°)4.6 mphMostly Cloudy
1:15 PM53.6 °F44.6 °F72 %29.99 in10.0 miWest (260°)4.6 mphMostly Cloudy
1:35 PM51.8 °F48.2 °F88 %30.01 in8.0 miSouth (190°)8.1 mphMostly Cloudy
1:55 PM51.8 °F48.2 °F88 %30.02 in10.0 miSSW (200°)12.7 mphScattered Clouds
2:15 PM53.6 °F48.2 °F82 %30.03 in10.0 miSSW (200°)11.5 mphPartly Cloudy
2:35 PM51.8 °F46.4 °F82 %30.05 in10.0 miSSW (200°)10.4 mph16.1 mphMostly Cloudy
2:55 PM53.6 °F46.4 °F77 %30.05 in10.0 miSouth (190°)8.1 mphMostly Cloudy
3:15 PM53.6 °F46.4 °F77 %30.06 in9.0 miSSW (200°)6.9 mphMostly Cloudy
3:35 PM53.6 °F46.4 °F77 %30.07 in10.0 miSouth (190°)6.9 mphMostly Cloudy
3:55 PM53.6 °F44.6 °F72 %30.08 in10.0 miWSW (250°)9.2 mphOvercast
4:15 PM53.6 °F42.8 °F67 %30.09 in10.0 miSW (220°)10.4 mph16.1 mphOvercast
4:35 PM53.6 °F42.8 °F67 %30.10 in10.0 miSSW (210°)11.5 mphOvercast
4:55 PM53.6 °F42.8 °F67 %30.10 in10.0 miSSW (210°)11.5 mphOvercast
5:15 PM51.8 °F41.0 °F67 %30.11 in10.0 miSSW (210°)10.4 mph18.4 mphMostly Cloudy
5:35 PM51.8 °F42.8 °F71 %30.12 in9.0 miSSW (200°)10.4 mphRainLight Rain
5:55 PM51.8 °F42.8 °F71 %30.12 in10.0 miSouth (190°)9.2 mphMostly Cloudy
6:15 PM50.0 °F42.8 °F76 %30.13 in10.0 miSSW (210°)10.4 mphMostly Cloudy
6:35 PM51.8 °F42.8 °F71 %30.12 in10.0 miSouth (180°)6.9 mphScattered Clouds
7:15 PM50.0 °F42.8 °F76 %30.13 in10.0 miSouth (180°)5.8 mphMostly Cloudy
7:35 PM50.0 °F41.0 °F71 %30.14 in10.0 miSouth (190°)8.1 mphMostly Cloudy
7:55 PM48.2 °F41.0 °F76 %30.14 in10.0 miSouth (190°)6.9 mphMostly Cloudy
8:15 PM48.2 °F41.0 °F76 %30.14 in10.0 miSouth (190°)9.2 mphOvercast
8:35 PM48.2 °F41.0 °F76 %30.15 in10.0 miSouth (180°)8.1 mphOvercast
8:55 PM48.2 °F41.0 °F76 %30.16 in10.0 miSSW (210°)6.9 mphMostly Cloudy
9:15 PM48.2 °F41.0 °F76 %30.16 in10.0 miSouth (180°)4.6 mphOvercast
9:35 PM48.2 °F41.0 °F76 %30.16 in10.0 miSouth (190°)8.1 mphOvercast
9:55 PM48.2 °F39.2 °F71 %30.17 in10.0 miSSW (200°)6.9 mphMostly Cloudy
10:15 PM48.2 °F39.2 °F71 %30.17 in10.0 miSSW (200°)8.1 mphMostly Cloudy
10:35 PM46.4 °F39.2 °F76 %30.18 in10.0 miSSW (210°)6.9 mphClear
10:55 PM46.4 °F39.2 °F76 %30.18 in10.0 miSSW (200°)8.1 mphClear
11:15 PM46.4 °F39.2 °F76 %30.18 in10.0 miSW (220°)5.8 mphClear
11:35 PM46.4 °F39.2 °F76 %30.19 in10.0 miSSW (210°)6.9 mphScattered Clouds
11:55 PM46.4 °F39.2 °F76 %30.19 in10.0 miSSW (200°)6.9 mphPartly Cloudy
Hourly data recorded from CZBB, located miles away from Delta, British Columbia







STORIES FROM OUR PARTNERS